Year,Month,Day,Hour,Minute,Value (Times are PST for temperature in C)
2017,04,25,09,45,10.10
2017,04,25,09,46,10.10
2017,04,25,09,47,10.00
2017,04,25,09,48,9.90
2017,04,25,09,49,9.90
2017,04,25,09,50,9.90
2017,04,25,09,51,9.80
2017,04,25,09,52,9.70
2017,04,25,09,53,9.70
2017,04,25,09,54,9.70
2017,04,25,09,55,9.60
2017,04,25,09,56,9.60
2017,04,25,09,57,9.50
2017,04,25,09,58,9.50
2017,04,25,09,59,9.50
2017,04,25,10,00,9.50
2017,04,25,10,01,9.60
2017,04,25,10,02,9.60
2017,04,25,10,03,9.70
2017,04,25,10,04,9.70
2017,04,25,10,05,9.60
2017,04,25,10,06,9.60
2017,04,25,10,07,9.60
2017,04,25,10,08,9.60
2017,04,25,10,09,9.70
2017,04,25,10,10,9.70
2017,04,25,10,11,9.70
2017,04,25,10,12,9.70
2017,04,25,10,13,9.80
2017,04,25,10,14,9.80
2017,04,25,10,15,9.80
2017,04,25,10,16,9.80
2017,04,25,10,17,9.80
2017,04,25,10,18,9.80
2017,04,25,10,19,9.80
2017,04,25,10,20,9.70
2017,04,25,10,21,9.70
2017,04,25,10,22,9.70
2017,04,25,10,23,9.80
2017,04,25,10,24,9.80
2017,04,25,10,25,9.80
2017,04,25,10,26,9.70
2017,04,25,10,27,9.80
2017,04,25,10,28,9.80
2017,04,25,10,29,9.80
2017,04,25,10,30,9.90
2017,04,25,10,31,9.90
2017,04,25,10,32,9.90
2017,04,25,10,33,9.90
2017,04,25,10,34,9.90
2017,04,25,10,35,9.90
2017,04,25,10,36,9.90
2017,04,25,10,37,9.90
2017,04,25,10,38,9.90
2017,04,25,10,39,10.00
2017,04,25,10,40,10.10
2017,04,25,10,41,10.10
2017,04,25,10,42,10.20
2017,04,25,10,43,10.20
2017,04,25,10,44,10.20
2017,04,25,10,45,10.20
2017,04,25,10,46,10.20
2017,04,25,10,47,10.00
2017,04,25,10,48,9.90
2017,04,25,10,49,9.90
2017,04,25,10,50,9.90
2017,04,25,10,51,9.90
2017,04,25,10,52,9.90
2017,04,25,10,53,9.90
2017,04,25,10,54,9.90
2017,04,25,10,55,10.00
2017,04,25,10,56,10.00
2017,04,25,10,57,9.90
2017,04,25,10,58,10.10
2017,04,25,10,59,10.00
2017,04,25,11,00,9.90
2017,04,25,11,01,9.90
2017,04,25,11,02,9.90
2017,04,25,11,03,9.90
2017,04,25,11,04,9.90
2017,04,25,11,05,9.90
2017,04,25,11,06,9.90
2017,04,25,11,07,10.00
2017,04,25,11,08,10.10
2017,04,25,11,09,10.10
2017,04,25,11,10,10.10
2017,04,25,11,11,10.20
2017,04,25,11,12,10.20
2017,04,25,11,13,10.30
2017,04,25,11,14,10.40
2017,04,25,11,15,10.30
2017,04,25,11,16,10.40
2017,04,25,11,17,10.30
2017,04,25,11,18,10.30
2017,04,25,11,19,10.20
2017,04,25,11,20,10.20
2017,04,25,11,21,10.20
2017,04,25,11,22,10.20
2017,04,25,11,23,10.30
2017,04,25,11,24,10.40
2017,04,25,11,25,10.40
2017,04,25,11,26,10.40
2017,04,25,11,27,10.40
2017,04,25,11,28,10.40
2017,04,25,11,29,10.40
2017,04,25,11,30,10.40
2017,04,25,11,31,10.40
2017,04,25,11,32,10.40
2017,04,25,11,33,10.40
2017,04,25,11,34,10.30
2017,04,25,11,35,10.30
2017,04,25,11,36,10.40
2017,04,25,11,37,10.40
2017,04,25,11,38,10.30
2017,04,25,11,39,10.40
2017,04,25,11,40,10.40
2017,04,25,11,41,10.40
2017,04,25,11,42,10.60
2017,04,25,11,43,10.60
2017,04,25,11,44,10.70
2017,04,25,11,45,10.70
2017,04,25,11,46,10.70
2017,04,25,11,47,10.70
2017,04,25,11,48,10.60
2017,04,25,11,49,10.60
2017,04,25,11,50,10.70
2017,04,25,11,51,10.70
2017,04,25,11,52,10.70
2017,04,25,11,53,10.70
2017,04,25,11,54,10.80
2017,04,25,11,55,10.70
2017,04,25,11,56,10.60
2017,04,25,11,57,10.60
2017,04,25,11,58,10.50
2017,04,25,11,59,10.40
2017,04,25,12,00,10.40
2017,04,25,12,01,10.30
2017,04,25,12,02,10.30
2017,04,25,12,03,10.40
2017,04,25,12,04,10.40
2017,04,25,12,05,10.30
2017,04,25,12,06,10.30
2017,04,25,12,07,10.30
2017,04,25,12,08,10.30
2017,04,25,12,09,10.30
2017,04,25,12,10,10.40
2017,04,25,12,11,10.40
2017,04,25,12,12,10.40
2017,04,25,12,13,10.40
2017,04,25,12,14,10.50
2017,04,25,12,15,10.60
2017,04,25,12,16,10.50
2017,04,25,12,17,10.40
2017,04,25,12,18,10.40
2017,04,25,12,19,10.40
2017,04,25,12,20,10.40
2017,04,25,12,21,10.40
2017,04,25,12,22,10.40
2017,04,25,12,23,10.40
2017,04,25,12,24,10.40
2017,04,25,12,25,10.50
2017,04,25,12,26,10.60
2017,04,25,12,27,10.60
2017,04,25,12,28,10.60
2017,04,25,12,29,10.60
2017,04,25,12,30,10.60
2017,04,25,12,31,10.60
2017,04,25,12,32,10.60
2017,04,25,12,33,10.60
2017,04,25,12,34,10.60
2017,04,25,12,35,10.60
2017,04,25,12,36,10.50
2017,04,25,12,37,10.40
2017,04,25,12,38,10.40
2017,04,25,12,39,10.50
2017,04,25,12,40,10.60
2017,04,25,12,41,10.60
2017,04,25,12,42,10.60
2017,04,25,12,43,10.70
2017,04,25,12,44,10.70
2017,04,25,12,45,10.80
2017,04,25,12,46,10.90
2017,04,25,12,47,10.90
2017,04,25,12,48,10.90
2017,04,25,12,49,11.00
2017,04,25,12,50,11.10
2017,04,25,12,51,11.10
2017,04,25,12,52,11.20
2017,04,25,12,53,11.20
2017,04,25,12,54,11.30
2017,04,25,12,55,11.40
2017,04,25,12,56,11.50
2017,04,25,12,57,11.60
2017,04,25,12,58,11.60
2017,04,25,12,59,11.60
2017,04,25,13,00,11.60
2017,04,25,13,01,11.60
2017,04,25,13,02,11.60
2017,04,25,13,03,11.60
2017,04,25,13,04,11.70
2017,04,25,13,05,11.70
2017,04,25,13,06,11.80
2017,04,25,13,07,11.90
2017,04,25,13,08,12.00
2017,04,25,13,09,12.10
2017,04,25,13,10,12.20
2017,04,25,13,11,12.30
2017,04,25,13,12,12.30
2017,04,25,13,13,12.30
2017,04,25,13,14,12.40
2017,04,25,13,15,12.50
2017,04,25,13,16,12.50
2017,04,25,13,17,12.60
2017,04,25,13,18,12.70
2017,04,25,13,19,12.80
2017,04,25,13,20,12.80
2017,04,25,13,21,13.00
2017,04,25,13,22,13.10
2017,04,25,13,23,13.00
2017,04,25,13,24,12.90
2017,04,25,13,25,12.90
2017,04,25,13,26,12.90
2017,04,25,13,27,12.90
2017,04,25,13,28,12.90
2017,04,25,13,29,13.00
2017,04,25,13,30,13.00
2017,04,25,13,31,13.00
2017,04,25,13,32,12.90
2017,04,25,13,33,12.80
2017,04,25,13,34,12.70
2017,04,25,13,35,12.70
2017,04,25,13,36,12.80
2017,04,25,13,37,12.80
2017,04,25,13,38,12.80
2017,04,25,13,39,12.90
2017,04,25,13,40,12.80
2017,04,25,13,41,12.80
2017,04,25,13,42,12.80
2017,04,25,13,43,12.80
2017,04,25,13,44,12.80
2017,04,25,13,45,12.80
2017,04,25,13,46,12.80
2017,04,25,13,47,12.80
2017,04,25,13,48,12.80
2017,04,25,13,49,12.80
2017,04,25,13,50,12.80
2017,04,25,13,51,12.80
2017,04,25,13,52,12.80
2017,04,25,13,53,12.90
2017,04,25,13,54,13.00
2017,04,25,13,55,13.00
2017,04,25,13,56,13.10
2017,04,25,13,57,13.10
2017,04,25,13,58,13.10
2017,04,25,13,59,13.20
2017,04,25,14,00,13.20
2017,04,25,14,01,13.20
2017,04,25,14,02,13.10
2017,04,25,14,03,13.10
2017,04,25,14,04,13.10
2017,04,25,14,05,13.20
2017,04,25,14,06,13.20
2017,04,25,14,07,13.20
2017,04,25,14,08,13.30
2017,04,25,14,09,13.30
2017,04,25,14,10,13.30
2017,04,25,14,11,13.30
2017,04,25,14,12,13.30
2017,04,25,14,13,13.30
2017,04,25,14,14,13.30
2017,04,25,14,15,13.20
2017,04,25,14,16,13.20
2017,04,25,14,17,13.10
2017,04,25,14,18,13.10
2017,04,25,14,19,13.10
2017,04,25,14,20,13.10
2017,04,25,14,21,13.10
2017,04,25,14,22,13.10
2017,04,25,14,23,13.10
2017,04,25,14,24,13.10
2017,04,25,14,25,13.10
2017,04,25,14,26,13.10
2017,04,25,14,27,13.10
2017,04,25,14,28,13.20
2017,04,25,14,29,13.20
2017,04,25,14,30,13.20
2017,04,25,14,31,13.20
2017,04,25,14,32,13.20
2017,04,25,14,33,13.10
2017,04,25,14,34,13.10
2017,04,25,14,35,13.10
2017,04,25,14,36,13.00
2017,04,25,14,37,12.90
2017,04,25,14,38,12.80
2017,04,25,14,39,12.80
2017,04,25,14,40,12.80
2017,04,25,14,41,12.80
2017,04,25,14,42,12.80
2017,04,25,14,43,12.80
2017,04,25,14,44,12.80
2017,04,25,14,45,12.80
2017,04,25,14,46,12.90
2017,04,25,14,47,12.90
2017,04,25,14,48,13.00
2017,04,25,14,49,13.00
2017,04,25,14,50,13.00
2017,04,25,14,51,13.00
2017,04,25,14,52,13.00
2017,04,25,14,53,13.10
2017,04,25,14,54,13.10
2017,04,25,14,55,13.10
2017,04,25,14,56,13.10
2017,04,25,14,57,13.10
2017,04,25,14,58,13.10
2017,04,25,14,59,13.10
2017,04,25,15,00,13.20
2017,04,25,15,01,13.10
2017,04,25,15,02,13.10
2017,04,25,15,03,13.00
2017,04,25,15,04,13.00
2017,04,25,15,05,13.00
2017,04,25,15,06,12.90
2017,04,25,15,07,12.90
2017,04,25,15,08,12.90
2017,04,25,15,09,12.90
2017,04,25,15,10,12.90
2017,04,25,15,11,12.90
2017,04,25,15,12,12.90
2017,04,25,15,13,12.90
2017,04,25,15,14,13.00
2017,04,25,15,15,13.00
2017,04,25,15,16,13.00
2017,04,25,15,17,13.00
2017,04,25,15,18,12.90
2017,04,25,15,19,12.90
2017,04,25,15,20,12.80
2017,04,25,15,21,12.80
2017,04,25,15,22,12.80
2017,04,25,15,23,12.80
2017,04,25,15,24,12.80
2017,04,25,15,25,12.80
2017,04,25,15,26,12.80
2017,04,25,15,27,12.70
2017,04,25,15,28,12.60
2017,04,25,15,29,12.60
2017,04,25,15,30,12.50
2017,04,25,15,31,12.50
2017,04,25,15,32,12.50
2017,04,25,15,33,12.60
2017,04,25,15,34,12.60
2017,04,25,15,35,12.60
2017,04,25,15,36,12.60
2017,04,25,15,37,12.70
2017,04,25,15,38,12.70
2017,04,25,15,39,12.70
2017,04,25,15,40,12.70
2017,04,25,15,41,12.80
2017,04,25,15,42,12.80
2017,04,25,15,43,12.80
2017,04,25,15,44,12.80
2017,04,25,15,45,12.80
2017,04,25,15,46,12.80
2017,04,25,15,47,12.80
2017,04,25,15,48,12.80
2017,04,25,15,49,12.80
2017,04,25,15,50,12.90
2017,04,25,15,51,12.90
2017,04,25,15,52,12.90
2017,04,25,15,53,12.90
2017,04,25,15,54,12.90
2017,04,25,15,55,12.90
2017,04,25,15,56,12.90
2017,04,25,15,57,12.80
2017,04,25,15,58,12.80
2017,04,25,15,59,12.90
2017,04,25,16,00,12.90
2017,04,25,16,01,13.00
2017,04,25,16,02,13.00
2017,04,25,16,03,13.00
2017,04,25,16,04,13.10
2017,04,25,16,05,13.10
2017,04,25,16,06,13.20
2017,04,25,16,07,13.20
2017,04,25,16,08,13.30
2017,04,25,16,09,13.20
2017,04,25,16,10,13.10
2017,04,25,16,11,13.10
2017,04,25,16,12,13.10
2017,04,25,16,13,13.00
2017,04,25,16,14,13.00
2017,04,25,16,15,13.00
2017,04,25,16,16,13.00
2017,04,25,16,17,13.00
2017,04,25,16,18,13.00
2017,04,25,16,19,13.00
2017,04,25,16,20,12.90
2017,04,25,16,21,12.90
2017,04,25,16,22,12.90
2017,04,25,16,23,12.90
2017,04,25,16,24,12.80
2017,04,25,16,25,12.90
2017,04,25,16,26,12.80
2017,04,25,16,27,12.80
2017,04,25,16,28,12.80
2017,04,25,16,29,12.80
2017,04,25,16,30,12.80
2017,04,25,16,31,12.70
2017,04,25,16,32,12.70
2017,04,25,16,33,12.70
2017,04,25,16,34,12.60
2017,04,25,16,35,12.60
2017,04,25,16,36,12.60
2017,04,25,16,37,12.60
2017,04,25,16,38,12.70
2017,04,25,16,39,12.70
2017,04,25,16,40,12.60
2017,04,25,16,41,12.50
2017,04,25,16,42,12.40
2017,04,25,16,43,12.30
2017,04,25,16,44,12.30
2017,04,25,16,45,12.30
2017,04,25,16,46,12.30
2017,04,25,16,47,12.30
2017,04,25,16,48,12.20
2017,04,25,16,49,12.20
2017,04,25,16,50,12.30
2017,04,25,16,51,12.20
2017,04,25,16,52,12.30
2017,04,25,16,53,12.30
2017,04,25,16,54,12.30
2017,04,25,16,55,12.30
2017,04,25,16,56,12.30
2017,04,25,16,57,12.30
2017,04,25,16,58,12.30
2017,04,25,16,59,12.30
2017,04,25,17,00,12.30
2017,04,25,17,01,12.30
2017,04,25,17,02,12.30
2017,04,25,17,03,12.30
2017,04,25,17,04,12.30
2017,04,25,17,05,12.30
2017,04,25,17,06,12.20
2017,04,25,17,07,12.20
2017,04,25,17,08,12.20
2017,04,25,17,09,12.20
2017,04,25,17,10,12.20
2017,04,25,17,11,12.30
2017,04,25,17,12,12.30
2017,04,25,17,13,12.30
2017,04,25,17,14,12.30
2017,04,25,17,15,12.30
2017,04,25,17,16,12.30
2017,04,25,17,17,12.30
2017,04,25,17,18,12.20
2017,04,25,17,19,12.20
2017,04,25,17,20,12.20
2017,04,25,17,21,12.30
2017,04,25,17,22,12.30
2017,04,25,17,23,12.20
2017,04,25,17,24,12.20
2017,04,25,17,25,12.20
2017,04,25,17,26,12.20
2017,04,25,17,27,12.20
2017,04,25,17,28,12.10
2017,04,25,17,29,12.10
2017,04,25,17,30,12.00
2017,04,25,17,31,12.00
2017,04,25,17,32,12.00
2017,04,25,17,33,11.90
2017,04,25,17,34,11.90
2017,04,25,17,35,11.90
2017,04,25,17,36,11.90
2017,04,25,17,37,11.90
2017,04,25,17,38,11.90
2017,04,25,17,39,11.90
2017,04,25,17,40,11.90
2017,04,25,17,41,11.90
2017,04,25,17,42,11.90
2017,04,25,17,43,11.90
2017,04,25,17,44,11.90
2017,04,25,17,45,11.90
2017,04,25,17,46,11.80
2017,04,25,17,47,11.80
2017,04,25,17,48,11.80
2017,04,25,17,49,11.80
2017,04,25,17,50,11.80
2017,04,25,17,51,11.70
2017,04,25,17,52,11.70
2017,04,25,17,53,11.70
2017,04,25,17,54,11.70
2017,04,25,17,55,11.60
2017,04,25,17,56,11.60
2017,04,25,17,57,11.60
2017,04,25,17,58,11.60
2017,04,25,17,59,11.60
2017,04,25,18,00,11.60
2017,04,25,18,01,11.60
2017,04,25,18,02,11.60
2017,04,25,18,03,11.60
2017,04,25,18,04,11.60
2017,04,25,18,05,11.60
2017,04,25,18,21,11.40
2017,04,25,18,22,11.30
2017,04,25,18,23,11.30
2017,04,25,18,24,11.30
2017,04,25,18,25,11.30
2017,04,25,18,26,11.30
2017,04,25,18,27,11.30
2017,04,25,18,28,11.30
2017,04,25,18,29,11.30
2017,04,25,18,30,11.30
2017,04,25,18,31,11.30
2017,04,25,18,32,11.30
